sat.trackr.live / text

‹ back to catalog

STARLINK-30296

NORAD 57671 · 2023-124J

PAYLOAD ACTIVE UNKNOWN

§ Identity

Operator
Country
US
Launch date
2023-08-22
Launch site
AFWTR
Launch vehicle
Mass (kg)
RCS (m²)

Purposes: comms

External: N2YO · Heavens-Above · Gunter

§ Orbital elements

Epoch: 2026-09-20T13:05:46.606848Z

Period
93.85 min
Inclination
53.1627°
Eccentricity
0.0000450
Mean motion
15.34410114 rev/d
Perigee alt
462.4 km
Apogee alt
463.0 km
Semi-major
6,840.8 km
B*
-6.6120e-5
RAAN
19.3636°
Arg perigee
37.8185°
Mean anomaly
322.2849°
Rev number
17,343

§ Raw data

STARLINK-302961 57671U 23124J   26263.54567832 -.00002610  00000+0 -66120-4 0  99962 57671  53.1627  19.3636 0000450  37.8185 322.2849 15.34410114173433

JSON: /api/v1/satellites/57671 · /tle

For live sub-satellite position, see the globe view (requires WebGL).

§ Visibility from observer

Set your observer location to see the next 7 days of passes ≥ 10°. The values pass through the URL so the page stays shareable.

No JS? Fill the form by hand. The geolocation button needs JavaScript.